Dewpoint
34 35 38 40 42 42 43 46 48 49 52 54 57 60 61 60 64 64 63 62 62 60
34 35 36 40 41 41 42 43 45 47 50 52 54 55 58 62 63 64 63 63 63 62
34 35 36 37 38 41 41 42 43 45 47 49 51 54 54 56 59 62 62 63 63 63
33 35 36 36 37 38 40 41 42 43 45 47 49 51 51 50 52 52 57 63 62 62
32 34 35 36 37 38 38 39 41 41 44 45 46 49 48 47 47 47 49 52 55 61
31 33 33 35 36 37 37 37 38 41 42 45 46 45 44 44 44 45 46 48 50 53
30 32 32 33 35 36 36 36 37 39 41 43 44 41 40 40 41 43 46 48 49 50
30 31 30 31 33 34 35 35 36 37 38 40 42 39 37 37 37 40 44 46 47 49
28 28 29 30 31 32 33 34 35 35 36 37 38 38 35 35 36 39 42 43 44 45
26 26 28 29 29 31 33 33 33 34 34 35 36 36 35 34 35 38 40 41 41 41
24 25 27 28 28 30 32 32 32 32 32 33 34 35 33 32 33 35 36 39 40 40
23 26 27 28 29 30 31 31 30 29 31 32 33 34 32 32 31 31 33 33 34 37
24 26 27 28 28 29 29 28 28 29 30 32 31 34 32 32 31 30 30 31 32 34
25 25 26 25 27 26 27 27 28 29 29 30 30 31 32 33 32 30 30 31 31 32
Wind_Speed
19 18 18 20 18 18 19 20 22 22 20 18 17 19 22 24 26 25 20 21 20 20
18 19 19 20 19 18 19 20 22 22 21 18 16 17 20 13 27 18 17 19 21 23
18 19 18 18 19 19 20 21 22 23 24 22 18 12 15 16 16 26 22 20 22 23
18 19 19 18 18 18 19 20 21 19 21 22 21 19 15 19 19 22 21 20 25 23
17 18 18 19 20 19 18 18 18 20 20 21 22 18 20 18 18 20 20 19 22 27
17 18 18 19 19 20 20 19 18 18 18 20 19 17 19 22 22 19 17 15 17 17
17 17 18 18 18 19 19 19 18 15 16 16 15 15 19 22 24 24 18 16 16 16
16 17 18 19 19 19 18 18 18 17 14 16 11 10 17 22 24 24 23 20 18 17
16 17 17 18 19 19 19 18 18 17 16 14 14 11 16 19 24 23 22 20 21 20
16 16 17 17 18 18 19 18 18 17 17 18 15 9 15 20 23 19 20 20 19 21
15 16 17 17 17 18 17 17 18 18 17 17 14 10 14 25 20 20 18 18 21 20
14 16 17 18 18 18 17 18 18 18 19 19 17 4 13 18 20 19 20 20 21 20
14 15 17 18 18 17 18 18 18 20 19 19 20 9 8 12 17 20 19 21 21 19
14 15 16 17 17 18 18 18 18 19 20 21 18 19 10 9 14 16 18 20 21 20
Wind_Direction
352 348 344 346 346 340 338 327 329 337 335 335 336 332 245 266 269 227 228 232 235 239
351 349 345 341 344 348 344 332 336 332 330 337 332 346 336 315 269 245 233 229 236 243
347 346 343 341 342 345 344 341 337 339 335 332 334 343 338 320 327 248 240 236 229 233
345 343 343 343 344 345 339 342 342 340 340 338 336 345 4 345 345 336 339 235 229 234
344 342 343 342 343 344 345 341 339 347 345 341 338 352 354 345 351 338 338 339 340 279
342 341 340 340 341 342 343 342 342 348 345 341 343 357 351 341 336 331 322 317 313 308
337 337 337 337 338 338 341 340 342 346 342 342 350 5 352 345 337 331 324 315 309 301
333 331 334 336 335 336 338 339 341 342 346 339 358 13 0 346 336 327 326 326 322 320
328 329 330 330 331 331 335 337 338 338 338 340 332 12 12 356 334 325 324 325 327 327
324 324 324 326 326 330 330 333 331 332 336 333 329 34 13 356 331 321 319 319 324 325
322 319 320 320 323 324 324 326 325 326 328 326 328 47 20 2 329 318 320 323 320 317
317 315 316 317 322 319 320 320 319 322 322 320 324 43 20 356 331 324 322 323 317 316
310 308 310 313 314 316 314 312 318 318 317 319 314 342 19 346 329 323 328 322 316 316
303 304 305 305 304 309 310 311 311 313 313 311 315 318 342 329 318 317 318 313 317 317